Location: Courçay
(47.2523°N, 0.8761°E)
Time: 07:05:30
(UTC+00:00)

CZ-4C R/B - Pass Details

Date: 18 November 2025
Orbit: 487 x 1492 km, 63.4° (Epoch: 06 December)

Event Time Altitude Azimuth Distance (km) Brightness Sun altitude
Rises 18:43:55 0° 300° (WNW) 3,164 6.1 -24.6°
Reaches altitude 10° 18:46:56 10° 321° (NW) 2,418 5.0 -25.1°
Maximum altitude 18:50:40 18° 2° (N) 2,146 4.2 -25.7°
Enters shadow 18:51:50 17° 16° (NNE) 2,254 4.2 -25.9°
